STARLINK-32024, 60112

Orbit data source: Space-Track

STARLINK-32024, 60112 is a payload satellite owned by SpaceX/Seattle (US) in LEO that was launched on Sun, 23 Jun 2024 UTC via an FALCON 9 launch vehicle from the Air Force Eastern Test Range (AFETR). Payload-class satellites include a variety of spacecraft equipped with specific instruments for various scientific and technological missions. These include communications satellites like Starlink; space stations such as the ISS; scientific satellites like the Hubble; Earth observation satellites from companies like Planet Labs, Umbra, and HawkEye 360; GPS; miniature CubeSats for education and research; and military/defense satellites.

Loading next visibility...
Identifier
60112, 2024-117X
Orbit
LEO
Country
Flag of USUS
Related business
Manufacturer
SpaceX/Seattle
Mission
Operational Commercial Communications
Bus & Motor
STARLINK V2M, Unknown motor
Mass
730 kg wet, ~700 kg dry
Launch date (UTC)
2024-06-23 (2 years ago)
Launch vehicle
FALCON 9
Launch site
Air Force Eastern Test Range (AFETR)
Object type
Payload
Rocket body
Debris
Shape & HBR
Box + 2 Pan, 17.7 m
Radar Cross Section
33.884 m², Large (>1 m²)

Expand to show TLE details & history
Last TLE update: 9 hours ago

TLE from 9 hours ago
0 STARLINK-32024
1 60112U 24117X   26171.45863449 -.00000150  00000-0  70614-5 0  9995
2 60112  53.1604 279.5725 0000968  88.7283 271.3828 15.30205136112626
Epoch: 2026-06-20T11:00Z
TLE epoch observation values (Epoch: 2026-06-20T11:00:26.019Z)
Latitude
-0.0001°
Longitude
-154.20895°
Altitude
476.084 km
Speed
7.629 km/s
True Right ascension
18h 38m 17s
True Declination
0° 00' 00"
Sunlit
Object was in full shadow at epoch
Visualization orbit readout
Latitude
Unknown
Longitude
Unknown
Altitude
Unknown
Speed
Unknown
Apparent Right ascension
Unknown
Apparent Declination
Unknown
Sunlit
N/A
Visualization observer readout
Local Sidereal Time
07:14:07
Azimuth
Unknown
Elevation
Unknown
Doppler factor
Unknown
Orbital elements
Apogee altitude
476.12 km
Perigee altitude
474.793 km
Semi-major axis
6,853.593 km
Eccentricity
0.0001
Inclination
53.1604°
RAAN
279.5725°
Arg. of periapsis
88.7283°
True anomaly
271.37171°
Mean anomaly
271.3828°
Eccentric anomaly
271.37726°
Mean motion
3.8253 °/min
Orbital period
94.11 mins
BSTAR
0.0000070614
Loading maneuver chart data...
Computing Atmospheric mass density...
Loading historical data...
Loading historical data...
Loading historical data...
Loading historical data...
Loading historical data...
Loading historical data...
Loading historical data...

Documentation

Showing up to 5 results
|